{"data":{"norad_id":51884,"intl_designator":"2022-022AJ","name":"STARLINK-3577","alt_names":[],"object_type":"PAYLOAD","status":"ACTIVE","operator":null,"country":"US","launch_date":"2022-03-03","launch_site_code":"AFETR","launch_vehicle":null,"mission":null,"orbit_class":"UNKNOWN","rcs_meters":null,"size_class":null,"mass_kg":null,"dimensions":null,"purposes":["comms"],"wikipedia_slug":null,"has_3d_model":false,"image_url":null,"decayed_at":null,"tle_current":{"epoch":"2026-09-20T01:58:58.489824Z","epoch_age_seconds":92316,"freshness":"FRESH","line1":"1 51884U 22022AJ  26263.08262141 -.00001853  00000+0 -43721-4 0  9996","line2":"2 51884  53.1593 192.0138 0001171  90.0528 270.0609 15.34395163252870","mean_motion":15.34395163,"eccentricity":0.0001171,"inclination_deg":53.1593,"raan_deg":192.0138,"arg_perigee_deg":90.0528,"mean_anomaly_deg":270.0609,"bstar":-4.3721e-5,"rev_number":25287,"period_min":93.848053925337,"perigee_km":461.91655275259,"apogee_km":463.51868090385,"semimajor_km":6840.8546168282,"source":"CELESTRAK","updated_at":"2026-09-20T09:00:39.971937Z"}}}